Portada
METAR-TAF:

METAR-TAF

Aeroports :

RAF

Boulmer, Anglaterra

latitud: 55-25-19N, longitud: 1-36-12W, altitud: 24 m

Observació

L'informe es va fer fa 55 minuts, a les 21:50 UTC
Vent 14 kt del Oest/Sud-Oest
Temperatura 3°C
Humitat 81%
Pressió 1005 hPa
Visibilitat 10 km o més

METAR: EGQM 182150Z AUTO 24014KT 9999 NCD 03/00 Q1005

Hora: 22:45 (22:45 UTC)


TAF: manca

Observacions i pronòstics meteorològics de més de 4000 aeroports (METAR i TAF).

Les estacions disponibles són els punts grocs i vermells al mapa.

Posi el ratolí al punt desitjat per veure el nom de l'estació.

Feu clic per veure les observacions i els pronòstics meteorològics.

Per canviar el mapa: feu clic els botons verds amb una creu de color negre per apropar; al botó verd amb un guió per allunyar la imatge; o en les fletxes verdes per a mapes adjacents.


METAR-TAF: